Time,TemperatureF,DewpointF,PressureIn,WindDirection,WindDirectionDegrees,WindSpeedMPH,WindSpeedGustMPH,Humidity,HourlyPrecipIn,Conditions,Clouds,dailyrainin,SoftwareType,DateUTC
2013-03-10 00:00:00,35.8,32.6,28.53,ENE,57,26.2,40.9,88,0.00,,RA,0.00,VWS V14.01,2013-03-10 06:00:00,
2013-03-10 00:15:00,35.6,32.1,28.53,NNE,20,22.1,46.3,87,0.00,,-RA,0.00,VWS V14.01,2013-03-10 06:15:00,
2013-03-10 00:30:00,35.4,32.2,28.56,North,7,37.6,63.1,88,0.00,,-RA,0.00,VWS V14.01,2013-03-10 06:30:00,
2013-03-10 00:45:00,35.1,31.9,28.53,NE,42,34.9,51.7,88,0.00,,-RA,0.00,VWS V14.01,2013-03-10 06:45:00,
2013-03-10 01:00:00,35.1,31.9,28.56,NE,38,24.8,36.2,88,0.00,,-RA,0.00,VWS V14.01,2013-03-10 07:00:00,
2013-03-10 01:15:00,34.9,31.4,28.56,SE,137,20.8,37.6,87,0.00,,OVC018,0.00,VWS V14.01,2013-03-10 07:15:00,
2013-03-10 01:30:00,34.3,30.9,28.59,SE,128,40.9,40.9,87,0.00,,OVC018,0.00,VWS V14.01,2013-03-10 07:30:00,
2013-03-10 01:45:00,34.0,30.8,28.61,ENE,62,20.8,40.9,88,0.00,,OVC018,0.00,VWS V14.01,2013-03-10 07:45:00,
2013-03-10 03:00:00,34.0,30.8,28.59,NE,53,18.1,43.6,88,0.00,,OVC018,0.00,VWS V14.01,2013-03-10 08:00:00,
2013-03-10 03:15:00,34.2,31.0,28.59,NE,49,13.4,42.3,88,0.00,,OVC018,0.00,VWS V14.01,2013-03-10 08:15:00,
2013-03-10 03:30:00,34.2,31.0,28.59,ENE,72,23.5,46.3,88,0.00,,OVC018,0.00,VWS V14.01,2013-03-10 08:30:00,
2013-03-10 03:45:00,34.2,31.0,28.59,East,100,23.5,43.6,88,0.00,,OVC018,0.00,VWS V14.01,2013-03-10 08:45:00,
2013-03-10 04:00:00,34.0,30.8,28.59,ENE,71,18.1,46.3,88,0.00,,OVC018,0.00,VWS V14.01,2013-03-10 09:00:00,
2013-03-10 04:15:00,33.8,30.6,28.59,NE,36,38.9,42.3,88,0.00,,,0.00,VWS V14.01,2013-03-10 09:15:00,
2013-03-10 04:30:00,33.8,30.6,28.59,NE,34,26.8,55.0,88,0.00,,,0.00,VWS V14.01,2013-03-10 09:30:00,
2013-03-10 04:45:00,33.8,30.6,28.59,East,95,32.2,38.9,88,0.00,,,0.00,VWS V14.01,2013-03-10 09:45:00,
2013-03-10 05:00:00,33.6,30.7,28.61,East,86,23.5,46.3,89,0.00,,,0.00,VWS V14.01,2013-03-10 10:00:00,
2013-03-10 05:15:00,33.3,30.4,28.59,NE,34,40.9,55.0,89,0.00,,,0.00,VWS V14.01,2013-03-10 10:15:00,
2013-03-10 05:30:00,33.1,30.2,28.56,ENE,76,33.6,53.7,89,0.00,,,0.00,VWS V14.01,2013-03-10 10:30:00,
2013-03-10 05:45:00,32.9,30.0,28.61,NNE,25,39.6,51.7,89,0.00,,,0.00,VWS V14.01,2013-03-10 10:45:00,
2013-03-10 06:00:00,32.7,29.8,28.61,ESE,106,36.2,43.6,89,0.00,,,0.00,VWS V14.01,2013-03-10 11:00:00,
2013-03-10 06:15:00,32.5,29.7,28.61,NE,55,26.8,47.6,89,0.00,,,0.00,VWS V14.01,2013-03-10 11:15:00,
2013-03-10 06:30:00,32.4,29.5,28.64,ENE,67,49.0,53.7,89,0.00,,,0.00,VWS V14.01,2013-03-10 11:30:00,
2013-03-10 06:45:00,32.4,29.5,28.64,East,91,33.6,49.0,89,0.00,,,0.00,VWS V14.01,2013-03-10 11:45:00,
2013-03-10 07:00:00,31.5,28.3,28.64,East,83,37.6,49.0,88,0.00,,,0.00,VWS V14.01,2013-03-10 12:00:00,
2013-03-10 07:15:00,31.3,28.1,28.64,East,89,23.5,51.7,88,0.00,,,0.00,VWS V14.01,2013-03-10 12:15:00,
2013-03-10 07:30:00,30.9,27.5,28.67,East,98,56.4,56.4,87,0.00,,,0.00,VWS V14.01,2013-03-10 12:30:00,
2013-03-10 07:45:00,30.9,27.5,28.61,East,90,42.3,56.4,87,0.00,,,0.00,VWS V14.01,2013-03-10 12:45:00,
2013-03-10 08:00:00,31.1,28.0,28.64,NNE,29,28.2,53.0,88,0.00,,,0.00,VWS V14.01,2013-03-10 13:00:00,
2013-03-10 08:15:00,31.1,28.0,28.67,ENE,62,33.6,43.6,88,0.00,,,0.00,VWS V14.01,2013-03-10 13:15:00,
2013-03-10 08:30:00,31.1,28.0,28.67,ENE,77,38.9,47.6,88,0.00,,,0.00,VWS V14.01,2013-03-10 13:30:00,
2013-03-10 08:45:00,30.9,27.8,28.67,ESE,110,30.9,49.0,88,0.00,,,0.00,VWS V14.01,2013-03-10 13:45:00,
2013-03-10 09:00:00,31.1,28.2,28.67,ESE,103,26.2,51.7,89,0.00,,,0.00,VWS V14.01,2013-03-10 14:00:00,
2013-03-10 09:15:00,30.4,27.5,28.67,ENE,69,34.9,47.6,89,0.00,,,0.00,VWS V14.01,2013-03-10 14:15:00,
2013-03-10 09:30:00,30.4,27.5,28.67,ENE,62,30.9,51.7,89,0.00,,,0.00,VWS V14.01,2013-03-10 14:30:00,
2013-03-10 09:45:00,30.4,27.5,28.67,NE,49,32.2,46.3,89,0.00,,,0.00,VWS V14.01,2013-03-10 14:45:00,
2013-03-10 10:00:00,30.2,27.4,28.64,ENE,78,37.6,47.6,89,0.00,,,0.00,VWS V14.01,2013-03-10 15:00:00,
2013-03-10 10:15:00,29.7,27.1,28.67,NNE,32,23.5,45.0,90,0.00,,,0.00,VWS V14.01,2013-03-10 15:15:00,
2013-03-10 10:30:00,29.7,27.1,28.70,NE,46,22.1,53.0,90,0.00,,,0.00,VWS V14.01,2013-03-10 15:30:00,
2013-03-10 10:45:00,29.5,26.9,28.67,ESE,117,22.1,56.4,90,0.00,,,0.00,VWS V14.01,2013-03-10 15:45:00,
2013-03-10 11:00:00,29.5,26.6,28.70,NE,37,60.4,60.4,89,0.00,,,0.00,VWS V14.01,2013-03-10 16:00:00,
2013-03-10 11:15:00,29.5,26.6,28.70,ENE,62,32.2,60.4,89,0.00,,,0.00,VWS V14.01,2013-03-10 16:15:00,
2013-03-10 11:30:00,30.0,27.2,28.67,ESE,103,18.1,60.4,89,0.00,,,0.00,VWS V14.01,2013-03-10 16:30:00,
2013-03-10 11:45:00,30.2,27.4,28.70,North,357,19.5,47.6,89,0.00,,,0.00,VWS V14.01,2013-03-10 16:45:00,
2013-03-10 12:00:00,30.0,27.5,28.70,North,2,20.8,38.9,90,0.00,,,0.00,VWS V14.01,2013-03-10 17:00:00,
2013-03-10 12:15:00,29.5,26.9,28.70,East,80,47.6,53.0,90,0.00,,,0.00,VWS V14.01,2013-03-10 17:15:00,
2013-03-10 12:30:00,29.5,26.9,28.70,East,93,32.2,56.4,90,0.00,,,0.00,VWS V14.01,2013-03-10 17:30:00,
2013-03-10 12:45:00,29.5,26.9,28.70,ENE,70,22.1,51.7,90,0.00,,,0.00,VWS V14.01,2013-03-10 17:45:00,
2013-03-10 13:00:00,29.3,26.7,28.70,NE,41,34.9,43.6,90,0.00,,,0.00,VWS V14.01,2013-03-10 18:00:00,
2013-03-10 13:15:00,29.7,26.8,28.70,ENE,62,20.8,40.9,89,0.00,,,0.00,VWS V14.01,2013-03-10 18:15:00,
2013-03-10 13:30:00,29.3,26.7,28.70,NNE,33,32.2,46.3,90,0.00,,,0.00,VWS V14.01,2013-03-10 18:30:00,
2013-03-10 13:45:00,29.7,26.8,28.70,NE,50,33.6,45.0,89,0.00,,,0.00,VWS V14.01,2013-03-10 18:45:00,
2013-03-10 14:00:00,28.8,25.9,28.70,ENE,75,36.2,45.0,89,0.00,,,0.00,VWS V14.01,2013-03-10 19:00:00,
2013-03-10 14:15:00,29.1,26.3,28.70,NE,41,24.8,43.6,89,0.00,,,0.00,VWS V14.01,2013-03-10 19:15:00,
2013-03-10 14:30:00,28.9,26.1,28.70,ENE,76,23.5,53.7,89,0.00,,,0.00,VWS V14.01,2013-03-10 19:30:00,
2013-03-10 14:45:00,29.1,26.0,28.70,East,92,23.5,37.6,88,0.00,,,0.00,VWS V14.01,2013-03-10 19:45:00,
2013-03-10 15:00:00,28.9,25.8,28.70,ENE,74,24.8,47.6,88,0.00,,,0.00,VWS V14.01,2013-03-10 20:00:00,
2013-03-10 15:15:00,28.2,25.4,28.67,ENE,60,39.6,42.3,89,0.00,,,0.00,VWS V14.01,2013-03-10 20:15:00,
2013-03-10 15:30:00,28.2,25.1,28.70,NE,44,15.4,39.6,88,0.00,,,0.00,VWS V14.01,2013-03-10 20:30:00,
2013-03-10 15:45:00,27.9,24.8,28.70,ESE,111,16.8,43.6,88,0.00,,,0.00,VWS V14.01,2013-03-10 20:45:00,
2013-03-10 16:00:00,28.0,25.0,28.70,East,99,36.2,46.3,88,0.00,,,0.00,VWS V14.01,2013-03-10 21:00:00,
2013-03-10 16:15:00,27.7,24.6,28.70,ESE,117,19.5,45.0,88,0.00,,,0.00,VWS V14.01,2013-03-10 21:15:00,
2013-03-10 16:30:00,28.0,25.0,28.70,East,81,26.2,39.6,88,0.00,,,0.00,VWS V14.01,2013-03-10 21:30:00,
2013-03-10 16:45:00,27.0,23.9,28.73,North,1,37.6,43.6,88,0.00,,,0.00,VWS V14.01,2013-03-10 21:45:00,
2013-03-10 17:00:00,26.8,23.4,28.73,East,82,26.8,39.6,87,0.00,,,0.00,VWS V14.01,2013-03-10 22:00:00,
2013-03-10 17:15:00,26.1,23.0,28.73,NNE,15,16.8,43.6,88,0.00,,,0.00,VWS V14.01,2013-03-10 22:15:00,
2013-03-10 17:30:00,26.1,23.0,28.73,ENE,78,22.1,36.2,88,0.00,,,0.00,VWS V14.01,2013-03-10 22:30:00,
2013-03-10 17:45:00,25.9,22.8,28.73,ESE,111,15.4,42.3,88,0.00,,,0.00,VWS V14.01,2013-03-10 22:45:00,
2013-03-10 18:00:00,25.9,22.8,28.73,East,100,26.8,45.0,88,0.00,,,0.00,VWS V14.01,2013-03-10 23:00:00,
2013-03-10 18:15:00,25.9,22.8,28.73,SSW,196,15.4,34.9,88,0.00,,,0.00,VWS V14.01,2013-03-10 23:15:00,
2013-03-10 18:30:00,25.7,22.6,28.73,ENE,66,24.8,39.6,88,0.00,,,0.00,VWS V14.01,2013-03-10 23:30:00,
2013-03-10 18:45:00,25.3,22.3,28.73,ENE,76,20.8,30.9,88,0.00,,,0.00,VWS V14.01,2013-03-10 23:45:00,
2013-03-10 19:00:00,25.3,22.3,28.73,East,91,30.9,34.9,88,0.00,,,0.00,VWS V14.01,2013-03-11 00:00:00,
2013-03-10 19:15:00,25.2,22.1,28.76,NNW,329,23.5,30.9,88,0.00,,,0.00,VWS V14.01,2013-03-11 00:15:00,
2013-03-10 19:30:00,25.2,22.1,28.76,SSE,151,28.2,38.9,88,0.00,,,0.00,VWS V14.01,2013-03-11 00:30:00,
2013-03-10 19:45:00,25.3,22.6,28.76,ENE,72,15.4,36.2,89,0.00,,,0.00,VWS V14.01,2013-03-11 00:45:00,
2013-03-10 20:00:00,25.2,22.4,28.76,ENE,70,16.8,28.2,89,0.00,,,0.00,VWS V14.01,2013-03-11 01:00:00,
2013-03-10 20:15:00,25.2,22.4,28.76,NE,38,33.6,34.9,89,0.00,,,0.00,VWS V14.01,2013-03-11 01:15:00,
2013-03-10 20:30:00,25.3,22.6,28.76,SW,223,14.1,34.9,89,0.00,,,0.00,VWS V14.01,2013-03-11 01:30:00,
2013-03-10 20:45:00,25.3,22.6,28.76,ESE,117,20.8,34.9,89,0.00,,,0.00,VWS V14.01,2013-03-11 01:45:00,
2013-03-10 21:00:00,25.3,22.6,28.76,NNE,14,24.8,34.9,89,0.00,,,0.00,VWS V14.01,2013-03-11 02:00:00,
2013-03-10 21:15:00,25.2,22.4,28.76,ENE,76,14.1,38.9,89,0.00,,,0.00,VWS V14.01,2013-03-11 02:15:00,
2013-03-10 21:30:00,25.2,22.4,28.76,SE,124,13.4,37.6,89,0.00,,,0.00,VWS V14.01,2013-03-11 02:30:00,
2013-03-10 21:45:00,25.3,22.6,28.76,ENE,78,32.2,38.9,89,0.00,,,0.00,VWS V14.01,2013-03-11 02:45:00,
2013-03-10 22:00:00,25.0,22.2,28.76,NW,307,23.5,46.3,89,0.00,,,0.00,VWS V14.01,2013-03-11 03:00:00,
2013-03-10 22:15:00,24.4,21.7,28.76,ESE,102,16.8,42.3,89,0.00,,,0.00,VWS V14.01,2013-03-11 03:15:00,
2013-03-10 22:30:00,24.3,21.5,28.76,NNE,12,36.2,40.9,89,0.00,,,0.00,VWS V14.01,2013-03-11 03:30:00,
2013-03-10 22:45:00,24.4,21.7,28.76,ENE,59,19.5,37.6,89,0.00,,,0.00,VWS V14.01,2013-03-11 03:45:00,
2013-03-10 23:00:00,23.7,21.0,28.79,ESE,110,23.5,40.9,89,0.00,,,0.00,VWS V14.01,2013-03-11 04:00:00,
2013-03-10 23:15:00,23.5,20.8,28.79,East,90,16.8,34.9,89,0.00,,,0.00,VWS V14.01,2013-03-11 04:15:00,
2013-03-10 23:30:00,23.5,20.8,28.79,NE,39,26.8,38.9,89,0.00,,,0.00,VWS V14.01,2013-03-11 04:30:00,
2013-03-10 23:45:00,23.2,20.2,28.79,ESE,106,19.5,39.6,88,0.00,,,0.00,VWS V14.01,2013-03-11 04:45:00,